TimeCET,TemperatureF,Dew PointF,Humidity,Sea Level PressureIn,VisibilityMPH,Wind Direction,Wind SpeedMPH,Gust SpeedMPH,PrecipitationIn,Events,Conditions,WindDirDegrees,DateUTC
12:00 AM,42.8,42.8,100,29.42,5.0,ENE,3.5,-,N/A,,Unknown,60,2012-11-28 23:00:00
12:30 AM,42.8,42.8,100,29.42,4.3,NE,4.6,-,N/A,,Unknown,40,2012-11-28 23:30:00
1:00 AM,43,42,93,29.42,2,ENE,6.7,,,,Mist,60,2012-11-29 00:00:00
1:00 AM,42.8,41.0,93,29.39,2.5,NE,5.8,-,N/A,,Mist,50,2012-11-29 00:00:00
1:30 AM,42.8,42.8,100,29.39,1.2,NE,6.9,-,N/A,,Mist,50,2012-11-29 00:30:00
2:00 AM,42.8,42.8,100,29.39,1.2,NE,6.9,-,N/A,,Scattered Clouds,50,2012-11-29 01:00:00
2:30 AM,42.8,42.8,100,29.36,1.2,NE,4.6,-,N/A,,Mostly Cloudy,40,2012-11-29 01:30:00
3:00 AM,42.8,42.8,100,29.36,1.6,ENE,4.6,-,N/A,,Mostly Cloudy,60,2012-11-29 02:00:00
3:30 AM,42.8,41.0,93,29.33,1.6,ENE,9.2,-,N/A,,Mist,60,2012-11-29 02:30:00
4:00 AM,42.8,41.0,93,29.33,1.2,NNE,6.9,-,N/A,Rain,Light Rain,20,2012-11-29 03:00:00
4:30 AM,42.8,41.0,93,29.27,1.2,NE,9.2,-,N/A,Rain,Light Rain,40,2012-11-29 03:30:00
5:00 AM,41.0,41.0,100,29.27,1.6,NW,3.5,-,N/A,,Mist,320,2012-11-29 04:00:00
5:30 AM,41.0,41.0,100,29.27,1.6,Variable,2.3,-,N/A,,Mist,0,2012-11-29 04:30:00
6:00 AM,39.2,39.2,100,29.27,0.8,SSW,3.5,-,N/A,,Mist,200,2012-11-29 05:00:00
6:22 AM,39.2,39.2,100,29.27,0.2,Variable,2.3,-,N/A,Fog,Fog,0,2012-11-29 05:22:00
6:30 AM,39.2,39.2,100,29.27,0.2,Variable,2.3,-,N/A,Fog,Fog,0,2012-11-29 05:30:00
7:00 AM,39.2,39.2,100,29.27,0.2,Calm,Calm,-,N/A,Fog,Fog,0,2012-11-29 06:00:00
7:30 AM,41.0,41.0,100,29.27,0.4,East,3.5,-,N/A,Fog,Fog,90,2012-11-29 06:30:00
8:00 AM,41.0,41.0,100,29.27,0.4,NE,4.6,-,N/A,Fog,Fog,40,2012-11-29 07:00:00
8:30 AM,42.8,41.0,93,29.27,0.6,East,4.6,-,N/A,Fog,Fog,100,2012-11-29 07:30:00
9:00 AM,42.8,42.8,100,29.27,0.6,NNE,3.5,-,N/A,Fog,Fog,20,2012-11-29 08:00:00
9:30 AM,42.8,42.8,100,29.24,0.4,NNE,3.5,-,N/A,Fog,Fog,30,2012-11-29 08:30:00
10:00 AM,44.6,44.6,100,29.24,1.9,ESE,6.9,-,N/A,,Partly Cloudy,110,2012-11-29 09:00:00
10:30 AM,51.8,46.4,82,29.24,-9999.0,South,6.9,-,N/A,,Clear,170,2012-11-29 09:30:00
11:00 AM,53.6,44.6,72,29.21,6.2,South,11.5,-,N/A,,Partly Cloudy,190,2012-11-29 10:00:00
11:30 AM,53.6,44.6,72,29.21,6.2,South,9.2,-,N/A,,Mostly Cloudy,190,2012-11-29 10:30:00
12:00 PM,55.4,44.6,67,29.21,6.2,South,10.4,-,N/A,,Mostly Cloudy,190,2012-11-29 11:00:00
12:30 PM,53.6,44.6,72,29.21,6.2,SSW,16.1,-,N/A,,Mostly Cloudy,210,2012-11-29 11:30:00
1:00 PM,54,44,59,29.21,16,SSW,15.7,,,,Partly Cloudy,210,2012-11-29 12:00:00
1:00 PM,53.6,44.6,72,29.21,6.2,SSW,13.8,-,N/A,,Mostly Cloudy,210,2012-11-29 12:00:00
1:30 PM,51.8,44.6,76,29.21,6.2,SSW,17.3,-,N/A,,Mostly Cloudy,200,2012-11-29 12:30:00
2:00 PM,51.8,44.6,76,29.21,6.2,SSW,10.4,-,N/A,,Mostly Cloudy,200,2012-11-29 13:00:00
2:30 PM,51.8,44.6,76,29.21,6.2,SSW,12.7,-,N/A,Rain,Light Rain Showers,200,2012-11-29 13:30:00
3:00 PM,48.2,44.6,87,29.21,6.2,South,12.7,-,N/A,Rain,Light Rain Showers,190,2012-11-29 14:00:00
3:30 PM,48.2,44.6,87,29.21,6.2,South,10.4,-,N/A,,Partly Cloudy,190,2012-11-29 14:30:00
4:00 PM,48.2,44.6,87,29.24,6.2,SSW,9.2,-,N/A,,Partly Cloudy,210,2012-11-29 15:00:00
4:30 PM,46.4,42.8,87,29.24,6.2,SSW,10.4,-,N/A,,Scattered Clouds,200,2012-11-29 15:30:00
5:00 PM,46.4,41.0,81,29.24,6.2,SSW,17.3,-,N/A,,Mostly Cloudy,210,2012-11-29 16:00:00
5:30 PM,46.4,41.0,81,29.27,6.2,SSW,15.0,-,N/A,,Mostly Cloudy,210,2012-11-29 16:30:00
6:00 PM,44.6,39.2,81,29.27,6.2,SSW,18.4,-,N/A,,Scattered Clouds,200,2012-11-29 17:00:00
6:30 PM,42.8,33.8,70,29.27,6.2,SSW,24.2,-,N/A,,Overcast,210,2012-11-29 17:30:00
7:00 PM,42,32,58,29.33,9,SSW,22.4,,,,Partly Cloudy,210,2012-11-29 18:00:00
7:00 PM,42.8,33.8,70,29.30,6.2,SSW,20.7,-,N/A,,Scattered Clouds,210,2012-11-29 18:00:00
7:30 PM,41.0,32.0,70,29.30,6.2,SSW,16.1,-,N/A,,Scattered Clouds,210,2012-11-29 18:30:00
8:00 PM,41.0,32.0,70,29.33,6.2,SSW,19.6,-,N/A,,Partly Cloudy,210,2012-11-29 19:00:00
8:30 PM,41.0,32.0,70,29.33,6.2,SW,17.3,-,N/A,,Mostly Cloudy,220,2012-11-29 19:30:00
9:00 PM,41.0,32.0,70,29.33,6.2,SSW,19.6,-,N/A,,Mostly Cloudy,210,2012-11-29 20:00:00
9:30 PM,41.0,32.0,70,29.36,6.2,SSW,18.4,-,N/A,,Mostly Cloudy,210,2012-11-29 20:30:00
10:00 PM,41.0,32.0,70,29.36,6.2,SSW,19.6,-,N/A,,Mostly Cloudy,210,2012-11-29 21:00:00
10:30 PM,41.0,32.0,70,29.36,6.2,SSW,18.4,-,N/A,,Mostly Cloudy,210,2012-11-29 21:30:00
11:00 PM,41.0,32.0,70,29.36,6.2,SSW,18.4,-,N/A,,Mostly Cloudy,210,2012-11-29 22:00:00
11:30 PM,39.2,32.0,75,29.39,6.2,SW,19.6,-,N/A,,Overcast,220,2012-11-29 22:30:00